RH
29 28 27 28 29 31 30 29 28 26 26 29 29 28 27 28 27 26 25 26 27 27 27 30 32 35 35 35 35 35 37 36 35 33 33 34 35 32 27 21 18 17 17 17 19 26 24 20 19 18 28 28 22 21 21 21 21 20 20 20 20 19 18 18 18 18 18 18 19 18 18 18 18 17 18 17 17 17 17 17 16 23 23 16 18
30 29 27 29 29 31 30 28 29 27 27 29 29 28 28 29 28 27 26 27 28 28 27 29 32 33 35 36 36 35 36 35 34 32 32 32 33 28 24 22 19 18 17 19 23 31 29 27 28 20 22 25 21 22 22 22 21 21 21 21 20 20 19 19 19 19 19 19 19 19 19 18 18 18 18 17 17 17 17 18 18 22 22 19 20
27 28 27 28 29 30 29 28 29 27 27 29 29 29 29 29 29 28 27 27 28 29 27 29 32 33 36 37 36 35 36 35 34 32 31 30 30 26 24 23 20 17 18 26 33 36 35 34 33 24 21 21 21 22 22 22 22 21 21 21 20 20 20 20 20 20 19 19 19 19 21 20 19 19 18 18 18 19 20 21 21 23 23 23 24
24 26 27 27 28 28 28 29 30 28 27 29 28 28 30 30 29 28 28 27 28 30 29 29 31 33 36 37 36 36 35 35 35 33 32 29 25 24 26 27 24 18 20 33 39 40 38 36 33 25 21 20 20 21 21 22 22 21 21 21 21 20 20 21 21 21 21 22 21 23 31 29 22 20 20 20 21 22 23 24 26 27 28 29 29
24 26 28 27 27 27 29 30 31 30 28 29 29 30 31 30 29 27 27 27 27 30 31 30 31 33 34 37 36 36 36 35 35 31 29 26 23 28 33 34 31 25 26 36 41 41 39 36 33 25 20 19 19 20 21 21 21 21 21 22 21 22 22 22 23 23 23 24 24 30 38 36 30 25 24 25 26 27 27 29 31 32 34 34 34
26 27 31 33 34 31 30 32 31 30 30 31 31 31 31 30 29 27 28 27 27 30 32 31 31 33 34 36 36 35 35 34 33 30 27 24 26 35 37 33 33 31 33 38 40 42 40 37 33 23 20 19 19 19 20 21 21 21 22 22 22 23 24 24 26 26 26 28 32 39 42 40 38 33 30 31 31 32 32 33 35 35 35 36 36
27 27 36 40 43 35 31 33 30 29 30 32 33 32 31 29 28 27 28 28 28 30 33 32 32 34 35 35 34 33 33 34 35 31 26 23 27 34 33 31 33 35 37 39 41 41 39 36 29 22 20 20 19 19 19 20 20 21 22 23 24 25 27 27 28 29 29 34 40 43 43 42 42 39 35 34 34 34 35 35 35 35 35 35 34
29 29 38 43 44 35 32 33 29 28 29 33 36 34 31 28 27 27 27 28 28 30 33 35 35 36 34 34 34 32 32 34 31 27 24 23 26 29 29 30 35 36 37 39 40 40 38 35 28 23 21 21 20 20 20 21 22 23 25 26 28 29 29 29 30 33 32 37 42 40 41 42 43 42 37 35 34 34 35 34 34 34 34 33 34
31 32 41 46 43 32 31 31 28 27 29 36 38 34 31 28 27 27 28 28 28 30 34 37 36 35 34 33 31 30 33 32 26 22 22 25 27 28 27 28 33 35 34 35 37 37 36 34 29 24 22 22 22 22 22 23 26 27 28 29 31 31 30 31 31 32 35 39 41 39 39 40 43 42 37 34 33 34 34 34 34 35 33 33 34
30 35 42 48 42 29 28 30 27 26 30 38 37 34 32 27 27 27 27 28 28 31 35 36 34 32 31 32 29 30 34 30 22 21 23 25 27 29 27 27 30 32 31 31 32 32 32 31 28 25 24 24 24 24 25 26 28 29 30 30 31 30 30 30 29 31 36 40 40 38 35 33 39 40 35 34 34 35 35 35 36 36 37 38 39
31 35 44 49 40 27 27 29 27 27 34 37 35 35 33 28 26 27 27 28 28 30 33 33 33 31 27 28 27 27 28 24 21 21 23 26 28 29 28 27 26 28 29 29 28 27 27 26 26 27 26 26 26 26 27 28 29 29 30 30 30 30 30 29 30 35 37 40 38 36 36 34 38 39 36 36 36 37 37 38 39 41 44 46 48
32 36 45 47 36 27 28 29 27 29 36 34 33 38 37 29 26 28 28 28 29 29 31 30 31 28 23 23 23 23 22 21 20 21 23 26 28 29 29 27 25 25 26 25 24 23 22 23 25 27 27 28 28 28 29 30 29 30 30 30 30 30 31 28 32 39 38 41 38 35 39 38 40 39 38 39 39 41 43 43 44 46 48 50 50
30 35 45 46 34 30 30 30 29 31 33 31 34 40 39 30 26 28 28 28 28 28 28 27 26 23 20 21 23 22 22 21 20 21 23 25 28 30 29 28 27 26 24 23 22 21 21 22 24 25 27 28 29 29 29 30 30 31 31 31 31 31 31 30 34 40 40 42 39 39 41 39 39 39 38 40 42 46 47 46 47 48 49 49 50
28 32 43 48 38 33 35 33 31 32 30 30 36 40 38 30 26 27 28 28 27 26 25 24 23 21 19 21 23 23 22 21 20 21 22 24 28 31 30 28 28 28 27 26 24 23 23 22 23 23 25 27 28 30 29 31 32 33 34 34 34 33 32 33 38 42 43 43 40 42 43 41 40 38 39 42 46 47 46 46 46 46 46 47 48
28 30 41 51 43 33 38 39 36 35 30 31 35 38 36 31 28 28 28 27 24 24 24 22 22 21 19 21 23 23 23 21 21 21 22 23 27 31 31 30 29 29 29 28 27 25 24 23 23 23 23 25 27 28 30 32 33 35 35 36 35 35 34 37 43 43 44 45 43 42 44 45 42 40 43 45 46 45 45 45 45 46 45 46 47
29 33 42 52 49 40 43 48 45 40 33 33 35 35 35 31 29 29 28 25 23 23 23 21 22 21 20 21 23 23 23 22 21 21 22 23 27 31 32 31 31 30 30 30 28 27 25 25 24 24 24 24 25 27 29 31 33 34 35 36 35 35 33 35 41 43 43 42 43 43 45 49 45 44 46 45 45 45 47 47 46 46 47 48 48
31 38 45 50 52 47 49 54 52 46 40 36 35 34 34 32 30 29 27 24 22 22 22 22 22 21 20 22 23 23 23 22 21 21 22 24 26 30 31 32 32 31 31 32 30 29 27 26 26 26 26 25 25 25 27 28 29 31 32 33 32 32 29 30 38 43 42 40 42 46 48 50 48 47 46 45 45 47 48 47 47 48 49 50 50
37 43 47 49 50 48 52 56 54 52 46 39 34 34 36 33 31 28 26 23 22 22 23 22 22 22 21 23 24 23 23 22 21 22 23 25 27 30 31 31 32 32 32 32 31 30 28 28 27 27 27 27 27 26 26 26 28 30 32 33 32 29 27 31 40 43 43 45 47 51 52 50 47 47 46 45 46 46 47 45 45 46 47 49 52
43 46 49 50 48 49 54 56 55 52 46 40 33 33 35 34 31 29 26 24 23 23 23 23 23 22 22 24 25 24 23 22 21 23 25 27 28 30 32 31 32 32 32 32 31 29 28 28 28 27 27 28 29 29 29 29 31 33 34 34 32 30 32 39 44 43 47 53 52 54 56 51 47 47 47 46 46 46 46 44 45 44 45 47 50
48 51 53 51 48 50 53 55 55 50 44 38 32 32 33 32 31 29 27 27 25 24 24 24 24 23 23 25 27 26 25 23 22 24 27 29 30 31 33 32 32 33 32 32 31 30 28 28 28 27 27 28 30 31 31 32 33 34 35 35 34 35 41 45 47 48 52 55 53 54 57 51 48 48 47 46 46 46 46 47 47 47 48 49 49
52 55 55 51 50 51 53 55 54 50 44 38 33 32 33 32 31 30 29 30 27 26 25 25 25 24 24 27 28 27 26 25 23 26 29 30 32 33 34 34 33 33 32 32 32 30 28 28 28 29 30 31 31 32 32 33 34 34 35 36 38 43 48 48 49 52 54 55 56 55 52 49 47 47 47 46 45 45 46 47 48 48 50 51 52
53 56 55 52 50 53 57 57 55 52 46 38 33 33 34 35 34 32 34 35 30 29 29 31 30 26 26 30 31 30 31 30 27 30 34 35 36 36 36 35 33 32 31 31 31 30 28 28 28 29 30 29 31 34 37 38 37 37 38 40 44 47 49 49 49 53 54 54 58 56 49 47 46 46 46 43 43 43 43 45 44 45 49 49 51
50 51 53 53 51 53 57 55 54 48 41 36 33 36 38 41 42 38 38 37 34 35 36 37 36 31 32 36 36 34 36 37 35 38 42 44 44 43 42 38 35 35 35 35 36 36 34 32 31 31 31 33 37 40 43 45 44 42 43 45 47 47 46 48 49 50 52 53 54 52 47 45 44 44 43 41 41 41 42 42 42 43 45 44 47
47 46 49 52 51 52 51 50 50 44 37 36 37 40 42 45 48 44 44 40 38 44 43 43 41 36 37 38 38 37 38 39 39 44 49 52 51 49 47 43 42 42 42 44 44 42 42 42 38 37 40 43 46 45 45 48 47 47 47 47 46 46 46 48 49 49 52 53 51 49 45 43 43 43 42 41 41 41 41 40 41 41 41 42 43
44 41 45 50 52 53 49 46 50 48 42 40 39 43 45 48 50 47 50 46 44 49 46 47 43 35 36 36 37 38 38 41 43 48 51 53 54 53 50 49 49 47 48 51 52 49 49 50 46 45 47 48 48 47 46 47 47 47 47 46 45 46 45 46 48 49 53 53 48 45 43 42 43 42 41 40 40 40 40 40 41 41 42 41 40
40 39 44 52 56 56 50 45 48 50 48 46 47 50 51 53 52 49 52 50 47 49 49 48 40 33 37 38 39 40 41 45 45 49 51 52 53 53 51 52 53 52 52 55 55 53 53 52 49 49 49 48 47 47 45 43 44 45 44 43 43 43 43 45 47 49 52 52 47 41 41 41 41 41 40 39 39 39 39 39 40 40 41 40 39
37 37 42 50 56 56 51 46 47 49 52 53 54 56 56 55 54 50 52 53 50 51 52 46 36 36 41 41 42 42 45 48 48 50 50 52 53 51 51 52 55 55 56 59 58 54 52 50 48 48 47 46 45 44 43 39 37 39 41 41 41 42 43 45 47 49 51 49 43 39 39 40 40 40 39 38 39 40 40 40 40 40 40 39 39
36 37 40 45 51 52 49 46 47 50 54 56 55 56 56 56 53 49 53 55 55 56 52 44 38 39 43 43 44 43 46 50 50 50 50 53 52 51 52 54 58 59 57 59 59 56 53 51 49 48 45 44 43 40 41 39 36 37 39 40 40 41 42 43 46 48 48 44 38 37 38 38 39 39 40 39 40 41 42 42 42 43 43 42 41
36 37 39 43 47 50 48 47 48 50 55 56 55 55 55 57 53 52 57 56 56 57 48 43 42 42 44 45 44 42 45 51 51 50 51 52 52 52 53 56 59 60 59 59 59 58 56 53 49 47 44 43 42 39 39 40 38 39 40 41 41 41 39 41 45 46 46 42 36 36 38 39 40 41 40 39 39 39 40 41 43 43 44 43 42
37 39 39 42 45 48 49 49 51 52 55 56 55 56 56 60 59 59 62 58 57 54 46 46 46 46 47 46 44 42 47 54 53 50 52 52 53 54 56 58 59 59 61 61 60 61 60 55 49 47 45 45 43 38 39 41 40 41 41 42 43 41 38 39 43 45 46 43 37 39 41 42 42 41 40 39 38 38 39 40 41 41 43 42 43
37 41 41 42 43 47 50 51 53 53 54 56 57 59 60 63 66 67 65 61 59 53 50 52 51 51 51 47 46 46 51 57 55 52 53 52 53 56 57 59 60 60 63 64 63 61 58 52 46 44 45 47 44 37 37 41 42 44 44 43 42 40 38 39 42 43 45 44 41 42 43 43 43 41 40 39 38 38 38 39 39 39 41 41 44
39 41 43 44 43 46 51 53 54 54 55 57 59 61 63 65 69 69 65 62 58 57 60 59 57 56 53 50 48 50 56 59 55 54 54 54 55 57 59 61 61 61 64 65 62 55 48 45 43 43 46 49 44 37 38 41 43 44 44 42 40 40 40 41 42 43 44 45 45 45 43 43 42 40 39 38 38 38 38 39 38 38 38 39 40
41 42 44 45 46 47 51 55 55 54 56 59 60 60 63 65 67 67 67 66 65 66 67 63 61 58 53 51 49 52 59 60 56 55 57 59 59 58 59 60 60 61 64 64 60 51 45 44 46 47 49 48 41 37 39 42 44 44 43 42 40 41 42 43 44 44 44 44 45 44 43 43 42 40 39 38 38 38 38 37 37 37 36 36 35
40 42 44 45 47 48 52 56 56 54 56 59 59 59 64 65 64 67 70 70 69 69 67 63 61 58 55 51 50 56 61 60 58 59 62 63 62 60 60 61 61 62 64 63 59 52 47 48 52 53 49 42 37 37 41 43 45 44 42 41 41 42 43 44 45 45 44 44 44 44 43 42 40 39 38 38 38 38 37 36 36 36 35 35 34
39 43 44 45 48 48 52 57 57 57 57 58 59 61 65 65 63 68 69 66 64 64 63 63 62 60 56 52 56 63 65 64 64 64 66 65 64 63 63 63 63 64 65 61 56 52 49 49 52 52 45 37 38 40 44 46 47 44 41 41 42 44 45 45 45 45 45 44 43 43 41 38 37 36 37 36 35 34 33 33 33 34 34 34 33
41 44 44 47 48 47 52 57 58 60 59 58 60 63 67 67 67 70 68 63 61 60 62 64 65 63 59 59 66 70 70 70 70 69 68 67 67 68 67 67 65 65 62 56 52 51 50 50 50 46 41 38 40 43 46 47 46 44 42 43 44 45 45 45 45 44 44 44 43 41 38 35 33 32 32 31 29 27 26 26 26 27 28 29 29
43 44 46 48 49 48 53 58 60 62 61 60 61 65 69 70 72 74 69 64 62 62 65 67 68 66 64 68 74 75 74 73 72 71 70 69 72 73 71 69 66 63 58 51 50 51 52 52 47 41 39 41 43 45 47 46 44 43 43 44 45 46 46 46 45 44 43 43 41 38 35 31 29 26 24 23 21 20 19 19 19 19 20 20 20
45 46 48 50 51 51 56 60 61 62 62 63 64 67 70 71 76 78 72 67 65 66 68 71 71 71 73 76 78 79 77 75 74 72 72 72 73 73 70 67 63 58 54 51 51 53 52 48 43 38 37 39 41 45 47 46 44 44 45 47 47 47 46 46 46 44 43 41 37 33 29 25 23 21 20 18 17 17 16 15 15 14 14 13 13
47 49 50 52 52 55 59 61 61 61 62 65 66 69 71 71 76 79 76 71 67 68 71 73 74 77 81 82 81 82 79 77 76 75 75 74 73 73 70 65 61 57 56 55 56 55 49 42 41 39 37 35 35 41 47 45 44 46 47 47 48 48 48 47 46 44 42 39 32 26 23 22 21 20 18 17 17 16 15 14 13 12 12 11 11
48 50 51 53 54 57 61 61 62 62 63 65 66 69 70 70 76 80 79 75 70 71 75 75 78 84 87 85 84 84 82 79 77 76 76 75 75 73 68 63 61 59 57 56 57 53 46 40 39 37 34 32 30 38 48 46 46 48 48 48 48 48 47 46 45 43 38 32 26 23 22 21 20 19 18 17 16 15 14 13 12 12 11 10 10
49 51 52 54 56 60 62 62 64 65 63 66 68 69 70 71 78 81 81 79 75 76 78 79 83 88 90 87 86 87 84 80 80 79 77 77 76 71 66 63 61 57 53 52 51 47 43 39 35 33 32 31 30 38 50 51 49 50 49 49 49 47 48 46 42 37 30 25 23 22 22 20 19 18 17 17 15 14 14 13 12 11 10 9 9
50 54 56 58 57 59 61 63 67 68 69 72 73 72 72 75 80 82 82 81 79 79 79 82 88 89 88 86 87 87 85 84 83 81 77 76 75 71 66 60 55 53 52 51 47 43 40 35 32 32 31 31 32 39 49 52 51 51 50 50 48 46 46 42 35 29 25 23 24 23 21 20 19 18 16 15 15 14 13 12 11 11 10 9 9
53 57 60 59 55 54 59 65 68 69 73 78 77 77 78 79 81 83 82 79 79 80 80 84 90 90 89 88 88 88 86 85 83 79 76 76 74 69 63 57 53 53 53 49 44 39 36 32 32 32 32 34 36 38 43 48 51 49 47 48 47 46 46 39 30 25 24 22 23 22 21 21 19 18 17 16 15 14 13 12 11 10 10 9 8
55 58 59 55 52 56 63 69 71 70 74 79 79 79 80 81 82 81 79 78 80 83 83 85 89 92 91 91 90 89 86 83 81 79 78 77 72 64 57 54 54 53 49 44 39 35 33 33 32 32 35 39 39 38 39 40 44 44 43 44 43 44 45 39 29 25 25 23 21 20 21 21 20 19 19 18 16 13 12 11 11 10 9 8 7
54 55 59 59 63 66 66 71 76 76 77 80 79 78 78 80 79 76 77 80 83 86 87 86 87 90 91 91 90 88 85 82 80 79 76 72 65 58 53 52 52 48 42 38 35 33 32 32 32 34 38 41 39 37 33 32 33 37 41 43 42 39 36 33 28 25 24 24 22 20 19 19 19 20 19 17 15 13 12 11 10 9 9 8 8
53 52 55 62 70 70 66 73 80 78 79 80 77 75 75 75 74 73 78 85 86 85 87 88 88 89 89 90 89 86 84 82 79 76 70 65 59 54 51 50 48 43 38 35 33 32 31 32 35 37 38 38 36 33 29 26 26 28 32 36 36 33 31 31 30 27 24 23 22 20 19 18 18 18 18 17 15 12 11 12 12 10 9 8 9
52 52 53 57 63 65 67 77 84 81 81 81 76 72 71 72 72 73 79 85 85 84 86 89 90 88 87 89 88 86 85 81 76 70 63 58 54 51 51 49 44 38 34 32 31 31 32 34 37 37 36 35 33 30 26 24 23 24 25 26 25 25 27 30 31 28 27 26 23 21 18 16 16 16 17 16 14 12 10 12 15 14 10 10 10
51 52 54 56 62 67 69 74 80 81 83 82 77 74 72 73 76 78 81 84 84 86 89 91 89 87 87 88 88 87 84 77 70 62 55 51 49 50 49 44 38 34 32 32 31 33 34 36 35 35 33 31 29 27 25 24 23 23 23 23 24 22 22 24 26 28 28 26 25 24 20 17 15 15 15 14 14 14 12 11 15 16 13 12 12
50 51 55 57 62 68 69 72 76 80 83 80 78 77 75 75 77 81 84 86 85 86 91 92 89 88 88 87 87 86 81 73 64 55 49 47 48 47 42 37 34 32 32 32 34 34 34 33 32 30 29 28 27 26 24 23 23 23 24 24 23 22 21 20 21 24 25 24 24 25 26 25 22 16 13 14 16 17 16 14 16 17 15 14 13
48 51 55 58 61 64 68 72 74 80 83 78 78 79 76 74 77 80 84 87 86 86 89 90 88 88 88 86 86 85 79 69 59 52 49 47 45 42 37 35 33 32 33 34 34 34 32 30 28 26 26 26 26 24 23 22 23 24 24 23 23 23 24 23 22 24 26 24 23 24 25 26 26 21 15 15 19 20 18 16 15 14 14 14 12
48 51 55 59 60 63 67 72 74 77 80 78 78 79 76 74 76 79 83 86 86 86 87 87 87 88 86 85 84 83 77 67 58 52 48 45 41 38 36 34 33 33 34 34 34 32 29 26 25 25 25 25 24 22 22 22 23 23 22 22 22 23 23 22 21 24 26 27 26 24 23 23 23 22 17 16 19 20 18 16 14 12 12 12 10